TimeMST,TemperatureF,Dew PointF,Humidity,Sea Level PressureIn,VisibilityMPH,Wind Direction,Wind SpeedMPH,Gust SpeedMPH,PrecipitationIn,Events,Conditions,WindDirDegrees,DateUTC
12:15 AM,35.6,5.0,28,30.12,10.0,South,15.0,19.6,N/A,,Clear,190,2013-01-24 07:15:00
12:35 AM,35.6,5.0,28,30.11,10.0,South,19.6,26.5,N/A,,Clear,180,2013-01-24 07:35:00
12:55 AM,35.6,5.0,28,30.11,10.0,SSW,25.3,29.9,N/A,,Clear,200,2013-01-24 07:55:00
1:15 AM,37.4,5.0,26,30.10,10.0,SSW,27.6,34.5,N/A,,Clear,210,2013-01-24 08:15:00
1:35 AM,39.2,5.0,24,30.10,10.0,SSW,25.3,32.2,N/A,,Clear,210,2013-01-24 08:35:00
1:55 AM,37.4,5.0,26,30.10,10.0,SSW,23.0,-,N/A,,Clear,210,2013-01-24 08:55:00
2:15 AM,37.4,5.0,26,30.11,10.0,SW,20.7,26.5,N/A,,Clear,220,2013-01-24 09:15:00
2:35 AM,39.2,5.0,24,30.12,10.0,SSW,19.6,25.3,N/A,,Clear,210,2013-01-24 09:35:00
2:55 AM,39.2,5.0,24,30.12,10.0,SW,21.9,26.5,N/A,,Clear,220,2013-01-24 09:55:00
3:15 AM,39.2,6.8,26,30.12,10.0,SW,19.6,-,N/A,,Clear,230,2013-01-24 10:15:00
3:35 AM,39.2,8.6,28,30.11,10.0,SW,19.6,-,N/A,,Clear,230,2013-01-24 10:35:00
3:55 AM,39.2,5.0,24,30.10,10.0,SW,17.3,-,N/A,,Clear,220,2013-01-24 10:55:00
4:15 AM,39.2,8.6,28,30.10,10.0,SSW,16.1,-,N/A,,Clear,200,2013-01-24 11:15:00
4:35 AM,37.4,6.8,28,30.10,10.0,SSW,19.6,-,N/A,,Clear,200,2013-01-24 11:35:00
4:55 AM,35.6,5.0,28,30.10,10.0,SSW,19.6,-,N/A,,Clear,200,2013-01-24 11:55:00
5:15 AM,37.4,5.0,26,30.10,10.0,SSW,18.4,23.0,N/A,,Clear,210,2013-01-24 12:15:00
5:35 AM,37.4,8.6,30,30.09,10.0,SW,18.4,23.0,N/A,,Clear,230,2013-01-24 12:35:00
5:55 AM,37.4,8.6,30,30.09,10.0,WSW,21.9,29.9,N/A,,Clear,240,2013-01-24 12:55:00
6:15 AM,37.4,10.4,33,30.09,10.0,SW,23.0,35.7,N/A,,Clear,230,2013-01-24 13:15:00
6:35 AM,37.4,12.2,36,30.07,10.0,SSW,27.6,42.6,N/A,,Clear,210,2013-01-24 13:35:00
6:55 AM,35.6,14.0,41,30.08,10.0,SSW,26.5,36.8,N/A,,Clear,210,2013-01-24 13:55:00
7:15 AM,35.6,15.8,44,30.08,10.0,SW,19.6,28.8,N/A,,Clear,220,2013-01-24 14:15:00
7:35 AM,33.8,17.6,52,30.07,10.0,SSW,25.3,33.4,N/A,,Clear,210,2013-01-24 14:35:00
7:55 AM,33.8,19.4,56,30.05,10.0,SSW,35.7,44.9,N/A,,Clear,210,2013-01-24 14:55:00
8:15 AM,33.8,21.2,60,30.03,10.0,SSW,39.1,52.9,N/A,,Clear,200,2013-01-24 15:15:00
8:35 AM,33.8,21.2,60,30.03,10.0,South,31.1,46.0,N/A,,Clear,190,2013-01-24 15:35:00
8:55 AM,32.0,19.4,60,30.03,10.0,South,32.2,39.1,N/A,,Clear,190,2013-01-24 15:55:00
9:15 AM,32.0,19.4,60,30.06,10.0,South,23.0,29.9,N/A,,Clear,180,2013-01-24 16:15:00
9:35 AM,33.8,21.2,60,30.07,10.0,SSW,25.3,39.1,N/A,,Clear,200,2013-01-24 16:35:00
9:55 AM,35.6,23.0,60,30.09,10.0,SW,21.9,32.2,N/A,,Clear,220,2013-01-24 16:55:00
10:15 AM,35.6,23.0,60,30.07,10.0,SSW,31.1,39.1,N/A,,Clear,200,2013-01-24 17:15:00
10:35 AM,35.6,23.0,60,30.07,10.0,South,27.6,44.9,N/A,,Clear,190,2013-01-24 17:35:00
10:55 AM,35.6,23.0,60,30.06,10.0,South,28.8,40.3,N/A,,Clear,190,2013-01-24 17:55:00
11:15 AM,35.6,23.0,60,30.06,10.0,SSW,40.3,50.6,N/A,,Clear,210,2013-01-24 18:15:00
11:35 AM,37.4,21.2,52,30.06,10.0,SSW,35.7,50.6,N/A,,Clear,210,2013-01-24 18:35:00
11:55 AM,37.4,23.0,56,30.06,10.0,SSW,38.0,50.6,N/A,,Clear,210,2013-01-24 18:55:00
12:15 PM,37.4,23.0,56,30.06,10.0,SSW,28.8,52.9,N/A,,Clear,210,2013-01-24 19:15:00
12:35 PM,37.4,21.2,52,30.05,10.0,SSW,32.2,41.4,N/A,,Clear,210,2013-01-24 19:35:00
12:55 PM,37.4,23.0,56,30.05,10.0,SSW,24.2,36.8,N/A,,Clear,200,2013-01-24 19:55:00
1:15 PM,37.4,23.0,56,30.04,10.0,SSW,29.9,38.0,N/A,,Clear,200,2013-01-24 20:15:00
1:35 PM,39.2,23.0,52,30.03,10.0,SW,31.1,42.6,N/A,,Clear,220,2013-01-24 20:35:00
1:55 PM,41.0,23.0,49,30.03,10.0,SW,32.2,43.7,N/A,,Clear,220,2013-01-24 20:55:00
2:15 PM,39.2,23.0,52,30.05,10.0,SW,25.3,36.8,N/A,,Clear,220,2013-01-24 21:15:00
2:35 PM,37.4,26.6,65,30.07,10.0,WSW,27.6,33.4,N/A,,Clear,240,2013-01-24 21:35:00
2:55 PM,37.4,26.6,65,30.07,10.0,West,17.3,-,N/A,,Clear,260,2013-01-24 21:55:00
3:15 PM,37.4,23.0,56,30.08,10.0,West,13.8,-,N/A,,Scattered Clouds,260,2013-01-24 22:15:00
3:35 PM,35.6,21.2,56,30.08,10.0,West,11.5,-,N/A,,Scattered Clouds,270,2013-01-24 22:35:00
3:55 PM,37.4,21.2,52,30.08,10.0,WSW,17.3,-,N/A,,Clear,250,2013-01-24 22:55:00
4:15 PM,37.4,23.0,56,30.10,10.0,West,9.2,-,N/A,,Clear,270,2013-01-24 23:15:00
4:35 PM,35.6,21.2,56,30.10,10.0,NNW,9.2,-,N/A,,Clear,330,2013-01-24 23:35:00
4:55 PM,35.6,21.2,56,30.12,10.0,NNW,13.8,-,N/A,,Clear,330,2013-01-24 23:55:00
5:15 PM,35.6,21.2,56,30.12,10.0,NNW,8.1,-,N/A,,Clear,340,2013-01-25 00:15:00
5:35 PM,35.6,19.4,52,30.12,10.0,North,8.1,11.5,N/A,,Clear,360,2013-01-25 00:35:00
6:15 PM,35.6,17.6,48,30.14,10.0,NNW,15.0,-,N/A,,Clear,340,2013-01-25 01:15:00
6:35 PM,35.6,17.6,48,30.16,10.0,NNW,17.3,-,N/A,,Clear,340,2013-01-25 01:35:00
6:55 PM,35.6,19.4,52,30.16,10.0,NNW,12.7,-,N/A,,Clear,340,2013-01-25 01:55:00
7:15 PM,35.6,19.4,52,30.18,10.0,NNW,12.7,-,N/A,,Clear,340,2013-01-25 02:15:00
7:35 PM,35.6,19.4,52,30.18,10.0,North,10.4,-,N/A,,Clear,350,2013-01-25 02:35:00
7:55 PM,35.6,19.4,52,30.19,10.0,NNE,9.2,-,N/A,,Clear,20,2013-01-25 02:55:00
8:15 PM,35.6,19.4,52,30.20,10.0,ESE,3.5,-,N/A,,Clear,120,2013-01-25 03:15:00
8:35 PM,35.6,19.4,52,30.20,10.0,ESE,4.6,-,N/A,,Clear,110,2013-01-25 03:35:00
8:55 PM,35.6,19.4,52,30.20,10.0,ESE,5.8,-,N/A,,Clear,120,2013-01-25 03:55:00
9:15 PM,33.8,19.4,56,30.20,10.0,SE,8.1,-,N/A,,Clear,130,2013-01-25 04:15:00
9:35 PM,33.8,21.2,60,30.20,10.0,SE,13.8,-,N/A,,Clear,130,2013-01-25 04:35:00
9:55 PM,32.0,21.2,64,30.18,10.0,SE,18.4,-,N/A,,Clear,130,2013-01-25 04:55:00
10:15 PM,32.0,21.2,64,30.19,10.0,SE,12.7,-,N/A,,Clear,130,2013-01-25 05:15:00
10:35 PM,32.0,23.0,69,30.19,10.0,SSE,11.5,-,N/A,,Clear,150,2013-01-25 05:35:00
10:55 PM,30.2,21.2,69,30.19,10.0,SE,12.7,-,N/A,,Clear,140,2013-01-25 05:55:00
11:15 PM,30.2,21.2,69,30.19,10.0,SE,11.5,-,N/A,,Clear,140,2013-01-25 06:15:00
11:35 PM,30.2,21.2,69,30.19,10.0,SE,13.8,-,N/A,,Clear,140,2013-01-25 06:35:00
11:55 PM,30.2,21.2,69,30.19,10.0,SE,10.4,-,N/A,,Clear,140,2013-01-25 06:55:00